Flag Weather past 2 weeks in Waldkraiburg, Bavaria, Germany

Now
37 °F

Low clouds.


Feels Like: 34 °F
Forecast: 34 / 44 °F
Wind: 3 mph from East

Location: Muenchen Flughafen

Current Time: Nov 26, 2014 at 6:59:37 AM

Latest Report: Nov 26, 2014 at 6:00 AM


Visibility: 7 mi

Pressure: 30.11 "Hg

Humidity: 90%

Dew point: 34 °F

Location of WaldkraiburgLocation

Historic Weather in Waldkraiburg — Graph

°F

Waldkraiburg temperature yesterday

Maximum temperature yesterday: 46 °F (at 1:00 PM)
Minimum temperature yesterday: 38 °F (at 11:00 PM)
Average temperature yesterday: 42 °F

Past Weeks' High & Low Weather Summary

 TemperatureHumidityPressure
High54 °F (Nov 12, 12:00 PM)100% (Nov 11, 7:00 PM)30.36 "Hg (Nov 11, 7:00 PM)
Low31 °F (Nov 17, 5:00 AM)66% (Nov 16, 3:00 PM)29.47 "Hg (Nov 16, 12:00 AM)
Average42 °F93%29.99 "Hg
* Reported Nov 11 6:00 AM — Nov 26 6:00 AM, Waldkraiburg, Weather by CustomWeather, © 2014

Note: Actual official high and low records may vary slightly from our data, if they occured in-between our weather recording intervals... More about our weather records

Advertising

Waldkraiburg weather history for previous 24 hours

 ConditionsComfort  
Time TempWeatherWind HumidityBarometerVisibility
6:00 AM
Nov 26
37 °FLow clouds.3 mph90%30.11 "Hg7 mi
5:00 AM37 °FLow clouds.6 mph88%30.12 "Hg7 mi
4:00 AM38 °FLow clouds.7 mph88%30.13 "Hg7 mi
3:00 AM38 °FLow clouds.6 mph89%30.14 "Hg7 mi
2:00 AM38 °FOvercast.6 mph87%30.15 "Hg8 mi
1:00 AM38 °FOvercast.6 mph86%30.17 "Hg9 mi
12:00 AM38 °FOvercast.6 mph86%30.18 "Hg9 mi
11:00 PM
Nov 25
38 °FOvercast.7 mph86%30.19 "Hg9 mi
10:00 PM39 °FOvercast.7 mph86%30.20 "Hg9 mi
9:00 PM39 °FOvercast.6 mph86%30.21 "Hg9 mi
8:00 PM39 °FOvercast.9 mph87%30.21 "Hg9 mi
7:00 PM39 °FOvercast.8 mph86%30.21 "Hg7 mi
6:00 PM40 °FOvercast.7 mph87%30.21 "Hg7 mi
5:00 PM39 °FPassing clouds.3 mph89%30.23 "Hg6 mi
4:00 PM40 °FPassing clouds.6 mph86%30.22 "Hg7 mi
3:00 PM43 °FOvercast.7 mph83%30.22 "Hg8 mi
2:00 PM45 °FPartly sunny.7 mph75%30.22 "Hg9 mi
1:00 PM46 °FPartly sunny.9 mph81%30.23 "Hg10 mi
12:00 PM44 °FLow clouds.5 mph86%30.25 "Hg9 mi
11:00 AM43 °FLow clouds.6 mph89%30.27 "Hg7 mi
10:00 AM42 °FLow clouds.5 mph91%30.28 "Hg5 mi
9:00 AM42 °FFog.6 mph93%30.28 "Hg3 mi
8:00 AM42 °FFog.5 mph95%30.28 "Hg2 mi
7:00 AM42 °FFog.2 mph95%30.29 "Hg2 mi
6:00 AM42 °FLow clouds.3 mph97%30.29 "Hg2 mi
Weather by CustomWeather, © 2014

See weather overviewHow to use our weather pages